| time (UTC) | temp F | wind direction | speed knots | gust knots | rain 1hr in | rain 24hr in | rain mn in | humidity % | barometer mb |
| 20260505224329 | 82 | 111 | 0.9 | 7.0 | 0.00 | 0.00 | 0.00 | 78 | 1006.8 |
| 20260505223344 | 82 | 117 | 0.9 | 4.3 | 0.00 | 0.00 | 0.00 | 78 | 1006.9 |
| 20260505222324 | 83 | 284 | 0.0 | 1.7 | 0.00 | 0.00 | 0.00 | 78 | 1007.0 |
| 20260505221326 | 83 | 317 | 0.0 | 1.7 | 0.00 | 0.00 | 0.00 | 78 | 1006.8 |
| 20260505220327 | 83 | 96 | 0.0 | 2.6 | 0.00 | 0.00 | 0.00 | 78 | 1007.0 |
| 20260505215321 | 83 | 38 | 0.0 | 0.9 | 0.00 | 0.00 | 0.00 | 79 | 1007.2 |
| 20260505214324 | 83 | 30 | 0.9 | 3.5 | 0.00 | 0.00 | 0.00 | 78 | 1007.4 |
| 20260505213321 | 83 | 340 | 0.0 | 2.6 | 0.00 | 0.00 | 0.00 | 78 | 1007.6 |
| 20260505212321 | 83 | 103 | 0.0 | 0.9 | 0.00 | 0.00 | 0.00 | 78 | 1007.6 |
| 20260505211321 | 83 | 102 | 0.0 | 1.7 | 0.00 | 0.00 | 0.00 | 77 | 1007.7 |
| 20260505210322 | 84 | 82 | 0.0 | 2.6 | 0.00 | 0.00 | 0.00 | 77 | 1007.8 |
| 20260505205345 | 84 | 63 | 0.0 | 6.1 | 0.00 | 0.00 | 0.00 | 75 | 1007.9 |
| 20260505204325 | 84 | 121 | 0.9 | 5.2 | 0.00 | 0.00 | 0.00 | 76 | 1008.1 |
| 20260505203329 | 83 | 165 | 0.0 | 1.7 | 0.00 | 0.00 | 0.00 | 77 | 1008.1 |
| 20260505202328 | 83 | 47 | 0.0 | 2.6 | 0.00 | 0.00 | 0.00 | 79 | 1008.3 |
| 20260505201347 | 82 | 42 | 0.0 | 0.9 | 0.00 | 0.00 | 0.00 | 78 | 1008.6 |
| 20260505200328 | 83 | 18 | 0.0 | 1.7 | 0.00 | 0.00 | 0.00 | 78 | 1008.6 |
| 20260505195321 | 83 | 271 | 0.9 | 2.6 | 0.00 | 0.00 | 0.00 | 77 | 1008.7 |
| 20260505194319 | 83 | 290 | 0.9 | 6.1 | 0.00 | 0.00 | 0.00 | 78 | 1008.8 |
| 20260505193339 | 83 | 279 | 0.9 | 2.6 | 0.00 | 0.00 | 0.00 | 78 | 1008.8 |
| 20260505192335 | 82 | 113 | 0.9 | 5.2 | 0.00 | 0.00 | 0.00 | 79 | 1008.8 |
| 20260505191331 | 82 | 284 | 0.0 | 1.7 | 0.00 | 0.00 | 0.00 | 80 | 1009.0 |
| 20260505190351 | 81 | 44 | 0.0 | 1.7 | 0.00 | 0.00 | 0.00 | 80 | 1009.1 |
| 20260505185321 | 80 | 165 | 0.9 | 2.6 | 0.00 | 0.00 | 0.00 | 81 | 1009.3 |
| 20260505184323 | 80 | 148 | 0.0 | 1.7 | 0.00 | 0.00 | 0.00 | 81 | 1009.4 |
| 20260505183323 | 80 | 194 | 0.9 | 6.1 | 0.00 | 0.00 | 0.00 | 82 | 1009.4 |
| 20260505182325 | 80 | 140 | 0.0 | 3.5 | 0.00 | 0.00 | 0.00 | 83 | 1009.5 |
| 20260505181327 | 80 | 138 | 0.0 | 0.9 | 0.00 | 0.00 | 0.00 | 84 | 1009.5 |
| 20260505180328 | 79 | 138 | 0.0 | 0.9 | 0.00 | 0.00 | 0.00 | 83 | 1009.5 |
| 20260505175317 | 79 | 104 | 0.9 | 2.6 | 0.00 | 0.00 | 0.00 | 83 | 1009.5 |
| 20260505174317 | 78 | 120 | 0.0 | 2.6 | 0.00 | 0.00 | 0.00 | 85 | 1009.6 |
| 20260505173321 | 78 | 109 | 0.0 | 0.9 | 0.00 | 0.00 | 0.00 | 86 | 1009.7 |
| 20260505172319 | 78 | 121 | 0.0 | 0.9 | 0.00 | 0.00 | 0.00 | 86 | 1009.8 |
| 20260505171340 | 78 | 150 | 0.0 | 0.0 | 0.00 | 0.00 | 0.00 | 86 | 1009.9 |
| 20260505170323 | 78 | 150 | 0.0 | 0.9 | 0.00 | 0.00 | 0.00 | 85 | 1010.0 |
| 20260505165333 | 78 | 152 | 0.0 | 4.3 | 0.00 | 0.00 | 0.00 | 85 | 1009.9 |
| 20260505164332 | 78 | 79 | 0.0 | 1.7 | 0.00 | 0.00 | 0.00 | 85 | 1009.9 |
| 20260505163334 | 77 | 108 | 0.0 | 0.9 | 0.00 | 0.00 | 0.00 | 86 | 1010.1 |
| 20260505162355 | 77 | 108 | 0.0 | 1.7 | 0.00 | 0.00 | 0.00 | 86 | 1010.1 |
| 20260505161357 | 77 | 109 | 0.0 | 1.7 | 0.00 | 0.00 | 0.00 | 86 | 1009.9 |
| 20260505160337 | 77 | 98 | 0.0 | 1.7 | 0.00 | 0.00 | 0.00 | 85 | 1010.0 |
| 20260505153324 | 77 | 109 | 0.0 | 2.6 | 0.00 | 0.00 | 0.00 | 86 | 1009.7 |
| 20260505152325 | 76 | 103 | 0.0 | 0.9 | 0.00 | 0.00 | 0.00 | 87 | 1009.8 |
| 20260505151329 | 76 | 82 | 0.0 | 1.7 | 0.00 | 0.00 | 0.00 | 87 | 1009.8 |
| 20260505150330 | 76 | 86 | 0.0 | 1.7 | 0.00 | 0.00 | 0.00 | 86 | 1009.8 |
| 20260505140319 | 75 | 55 | 0.0 | 4.3 | 0.00 | 0.00 | 0.00 | 88 | 1009.2 |
| 20260505124331 | 73 | 58 | 0.0 | 0.9 | 0.00 | 0.00 | 0.00 | 90 | 1008.9 |
| 20260505123330 | 72 | 57 | 0.0 | 3.5 | 0.00 | 0.00 | 0.00 | 90 | 1009.3 |
| 20260505122328 | 72 | 180 | 0.0 | 0.9 | 0.00 | 0.00 | 0.00 | 91 | 1009.2 |
| 20260505121330 | 72 | 180 | 0.9 | 1.7 | 0.00 | 0.00 | 0.00 | 91 | 1009.1 |
| 20260505120332 | 72 | 348 | 0.0 | 0.9 | 0.00 | 0.00 | 0.00 | 91 | 1008.9 |
| 20260505115322 | 72 | 76 | 0.0 | 0.9 | 0.00 | 0.00 | 0.00 | 91 | 1008.8 |
| 20260505114320 | 72 | 59 | 0.0 | 1.7 | 0.00 | 0.00 | 0.00 | 91 | 1009.0 |
| 20260505113340 | 71 | 132 | 0.0 | 1.7 | 0.00 | 0.00 | 0.00 | 91 | 1009.0 |
| 20260505112320 | 71 | 65 | 0.0 | 0.9 | 0.00 | 0.00 | 0.00 | 92 | 1008.9 |
| 20260505111323 | 71 | 65 | 0.0 | 0.0 | 0.00 | 0.00 | 0.00 | 92 | 1008.8 |
| 20260505110324 | 71 | 65 | 0.0 | 0.0 | 0.00 | 0.00 | 0.00 | 92 | 1008.7 |
| 20260505101335 | 70 | 65 | 0.0 | 0.0 | 0.00 | 0.00 | 0.00 | 92 | 1008.9 |
| 20260505100334 | 69 | 65 | 0.0 | 0.0 | 0.00 | 0.00 | 0.00 | 92 | 1009.1 |
| 20260505095346 | 69 | 65 | 0.0 | 0.0 | 0.00 | 0.00 | 0.00 | 92 | 1008.9 |
| 20260505094325 | 69 | 65 | 0.0 | 0.0 | 0.00 | 0.00 | 0.00 | 91 | 1009.0 |
| 20260505093325 | 69 | 65 | 0.0 | 0.0 | 0.00 | 0.00 | 0.00 | 91 | 1009.1 |
| 20260505092326 | 69 | 65 | 0.0 | 0.0 | 0.00 | 0.00 | 0.00 | 91 | 1009.2 |
| 20260505091325 | 69 | 65 | 0.0 | 0.0 | 0.00 | 0.00 | 0.00 | 91 | 1009.2 |
| 20260505090325 | 69 | 65 | 0.0 | 0.0 | 0.00 | 0.00 | 0.00 | 91 | 1009.3 |
| 20260505085335 | 69 | 65 | 0.0 | 0.0 | 0.00 | 0.00 | 0.00 | 90 | 1009.2 |
| 20260505084350 | 69 | 65 | 0.0 | 0.0 | 0.00 | 0.00 | 0.00 | 90 | 1009.4 |
| 20260505083330 | 70 | 65 | 0.0 | 0.0 | 0.00 | 0.00 | 0.00 | 90 | 1009.5 |
| 20260505082332 | 70 | 65 | 0.0 | 0.0 | 0.00 | 0.00 | 0.00 | 90 | 1009.4 |
| 20260505081330 | 70 | 65 | 0.0 | 0.0 | 0.00 | 0.00 | 0.00 | 89 | 1009.6 |
| 20260505080329 | 70 | 65 | 0.0 | 0.0 | 0.00 | 0.00 | 0.00 | 89 | 1009.6 |
| 20260505075335 | 70 | 65 | 0.0 | 0.0 | 0.00 | 0.00 | 0.00 | 89 | 1009.7 |
| 20260505074318 | 70 | 65 | 0.0 | 0.0 | 0.00 | 0.00 | 0.00 | 89 | 1009.7 |
| 20260505073336 | 70 | 65 | 0.0 | 0.0 | 0.00 | 0.00 | 0.00 | 89 | 1009.8 |
| 20260505072336 | 70 | 65 | 0.0 | 1.7 | 0.00 | 0.00 | 0.00 | 89 | 1010.0 |
| 20260505071353 | 70 | 281 | 0.0 | 0.0 | 0.00 | 0.00 | 0.00 | 89 | 1010.0 |
| 20260505070333 | 70 | 281 | 0.0 | 0.9 | 0.00 | 0.00 | 0.00 | 88 | 1010.1 |
| 20260505065320 | 70 | 304 | 0.0 | 0.9 | 0.00 | 0.00 | 0.00 | 88 | 1010.2 |
| 20260505064319 | 70 | 305 | 0.0 | 0.0 | 0.00 | 0.00 | 0.00 | 87 | 1010.2 |
| 20260505063321 | 70 | 305 | 0.0 | 0.0 | 0.00 | 0.00 | 0.00 | 87 | 1010.5 |
| 20260505062319 | 70 | 305 | 0.0 | 0.0 | 0.00 | 0.00 | 0.00 | 86 | 1010.5 |
| 20260505061318 | 70 | 304 | 0.0 | 0.0 | 0.00 | 0.00 | 0.00 | 86 | 1010.7 |
| 20260505060320 | 70 | 304 | 0.0 | 0.0 | 0.00 | 0.00 | 0.00 | 85 | 1010.6 |
| 20260505055332 | 71 | 304 | 0.0 | 0.9 | 0.00 | 0.00 | 0.00 | 85 | 1010.6 |
| 20260505054332 | 71 | 304 | 0.0 | 1.7 | 0.00 | 0.00 | 0.00 | 84 | 1010.8 |
| 20260505053332 | 71 | 321 | 0.0 | 0.0 | 0.00 | 0.00 | 0.00 | 83 | 1010.7 |
| 20260505052346 | 71 | 321 | 0.0 | 0.9 | 0.00 | 0.00 | 0.00 | 83 | 1011.0 |
| 20260505051323 | 72 | 351 | 0.0 | 2.6 | 0.00 | 0.00 | 0.00 | 82 | 1011.1 |
| 20260505050324 | 72 | 31 | 0.0 | 0.9 | 0.00 | 0.00 | 0.00 | 81 | 1011.1 |
| 20260505041325 | 73 | 75 | 0.0 | 0.9 | 0.00 | 0.00 | 0.00 | 80 | 1010.9 |
| 20260505040325 | 73 | 13 | 0.0 | 1.7 | 0.00 | 0.00 | 0.00 | 79 | 1011.3 |
| 20260505035334 | 73 | 133 | 0.0 | 0.9 | 0.00 | 0.00 | 0.00 | 79 | 1011.1 |
| 20260505034332 | 73 | 133 | 0.0 | 2.6 | 0.00 | 0.00 | 0.00 | 79 | 1011.1 |
| 20260505033331 | 73 | 306 | 0.0 | 1.7 | 0.00 | 0.00 | 0.00 | 78 | 1011.4 |
| 20260505032334 | 73 | 90 | 0.9 | 2.6 | 0.00 | 0.00 | 0.00 | 78 | 1011.4 |
| 20260505031318 | 73 | 53 | 0.0 | 1.7 | 0.00 | 0.00 | 0.00 | 78 | 1011.4 |
| 20260505030318 | 73 | 223 | 0.0 | 3.5 | 0.00 | 0.00 | 0.00 | 79 | 1011.2 |
| 20260505025327 | 73 | 222 | 0.0 | 4.3 | 0.00 | 0.00 | 0.00 | 78 | 1011.1 |
| 20260505024349 | 73 | 121 | 0.0 | 2.6 | 0.00 | 0.00 | 0.00 | 77 | 1011.2 |
| 20260505023331 | 73 | 126 | 0.0 | 0.9 | 0.00 | 0.00 | 0.00 | 77 | 1011.2 |
| 20260505022353 | 73 | 22 | 0.0 | 2.6 | 0.00 | 0.00 | 0.00 | 77 | 1011.2 |
| 20260505021348 | 73 | 156 | 0.0 | 2.6 | 0.00 | 0.00 | 0.00 | 77 | 1011.2 |
| 20260505020328 | 73 | 5 | 0.0 | 1.7 | 0.00 | 0.00 | 0.00 | 77 | 1011.0 |
| 20260505015317 | 73 | 69 | 0.0 | 0.0 | 0.00 | 0.00 | 0.00 | 76 | 1010.9 |
| 20260505014320 | 74 | 69 | 0.0 | 0.9 | 0.00 | 0.00 | 0.00 | 76 | 1010.7 |
| 20260505013322 | 74 | 69 | 0.0 | 0.0 | 0.00 | 0.00 | 0.00 | 75 | 1010.7 |
| 20260505012325 | 74 | 69 | 0.0 | 1.7 | 0.00 | 0.00 | 0.00 | 74 | 1010.6 |
| 20260505011329 | 75 | 32 | 0.0 | 0.9 | 0.00 | 0.00 | 0.00 | 73 | 1010.7 |
| 20260505010328 | 75 | 31 | 0.0 | 0.9 | 0.00 | 0.00 | 0.00 | 73 | 1010.6 |
| 20260505005317 | 75 | 343 | 0.0 | 1.7 | 0.00 | 0.00 | 0.00 | 73 | 1010.7 |
| 20260505004335 | 76 | 325 | 0.0 | 0.9 | 0.00 | 0.00 | 0.00 | 73 | 1010.6 |
| 20260505003317 | 76 | 323 | 0.0 | 1.7 | 0.00 | 0.00 | 0.00 | 72 | 1010.5 |
| 20260505002334 | 76 | 48 | 0.0 | 2.6 | 0.00 | 0.00 | 0.00 | 71 | 1010.5 |
| 20260505001334 | 76 | 101 | 0.9 | 3.5 | 0.00 | 0.00 | 0.00 | 71 | 1010.6 |
| 20260505000334 | 76 | 32 | 0.0 | 1.7 | 0.00 | 0.00 | 0.00 | 71 | 1010.8 |
| 20260504235329 | 77 | 195 | 0.0 | 2.6 | 0.00 | 0.00 | 0.00 | 70 | 1010.8 |
| 20260504234333 | 77 | 160 | 0.0 | 3.5 | 0.00 | 0.00 | 0.00 | 70 | 1010.7 |
| 20260504233335 | 77 | 355 | 0.0 | 1.7 | 0.00 | 0.00 | 0.00 | 71 | 1010.7 |
| 20260504232336 | 77 | 99 | 0.0 | 2.6 | 0.00 | 0.00 | 0.00 | 70 | 1010.8 |
| 20260504231318 | 77 | 76 | 0.9 | 3.5 | 0.00 | 0.00 | 0.00 | 69 | 1011.0 |
| 20260504230319 | 77 | 92 | 0.9 | 3.5 | 0.00 | 0.00 | 0.00 | 69 | 1011.2 |
| 20260504225329 | 78 | 294 | 0.9 | 3.5 | 0.00 | 0.00 | 0.00 | 69 | 1011.1 |